Weather History for PAQT - May, 2013

Change the Weather History Date:

Friday, May 31, 2013

  Actual Average (PAKU) Record (PAKU)
Temperature  
Mean Temperature 34 °F -  
Max Temperature 37 °F 34 °F 52 °F (1985)
Min Temperature 30 °F 26 °F 20 °F (1985)
Degree Days  
Heating Degree Days 32    
Moisture  
Dew Point 29 °F    
Average Humidity 88    
Maximum Humidity 100    
Minimum Humidity 75    
Precipitation  
Precipitation 0.00 in - - ()
Sea Level Pressure  
Sea Level Pressure 30.27 in    
Wind  
Wind Speed 5 mph (West)    
Max Wind Speed 13 mph    
Max Gust Speed -    
Visibility 9 miles    
Events Rain , Snow    
Averages and records for this station are not official NWS values.
T = Trace of Precipitation, MM = Missing Value Source: NWS Daily Summary

Daily Weather History Graph

Daily Weather History Graph

Search for Another Location

Airport or City:

Trip Planner

Search our weather history database for the weather conditions in past years. The results will help you decide how hot, cold, wet, or windy it might be!

Date:

Astronomy

Dec. 31, 1969 Rise Set
Actual Time Sun does not set Sun does not set
Civil Twilight Sun does not set Sun does not set
Nautical Twilight Sun does not set Sun does not set
Astronomical Twilight Sun does not set Sun does not set
Moon 2:45 AM AKDT (5/31) 1:41 PM AKDT (5/31)
Length of Visible Light 24h 00m
Length of Day
24h 00m
Waning Gibbous, 50% of the Moon is Illuminated
May 31
Waning Gibbous
Jun 8
New
Jun 16
First Quarter
Jun 23
Full
Jun 29
Last Quarter

Hourly Weather History & Observations

Time (AKDT) Temp. Windchill Dew Point Humidity Pressure Visibility Wind Dir Wind Speed Gust Speed Precip Events Conditions
12:53 AM 30.9 °F 26.2 °F 28.9 °F 92% 30.23 in 10.0 mi North 4.6 mph - 0.00 in   Overcast
1:53 AM 30.9 °F - 30.0 °F 96% 30.24 in 10.0 mi Calm Calm - N/A   Overcast
2:53 AM 30.9 °F - 28.9 °F 92% 30.24 in 10.0 mi Calm Calm - 0.00 in   Overcast
3:53 AM 30.9 °F 26.2 °F 28.9 °F 92% 30.24 in 10.0 mi North 4.6 mph - 0.00 in   Overcast
4:53 AM 30.9 °F - 28.9 °F 92% 30.24 in 10.0 mi Calm Calm - 0.00 in   Overcast
5:53 AM 30.9 °F 27.5 °F 30.0 °F 96% 30.24 in 10.0 mi North 3.5 mph - N/A   Overcast
6:09 AM 30.2 °F - 30.2 °F 100% 30.24 in 10.0 mi Calm Calm - N/A   Overcast
6:25 AM 30.2 °F 26.7 °F 30.2 °F 100% 30.24 in 10.0 mi NNW 3.5 mph - N/A   Overcast
6:34 AM 30.2 °F - 30.2 °F 100% 30.24 in 10.0 mi Calm Calm - 0.00 in   Overcast
6:50 AM 30.2 °F - 28.4 °F 93% 30.24 in 10.0 mi Calm Calm - 0.00 in   Overcast
6:53 AM 30.9 °F - 28.9 °F 92% 30.25 in 10.0 mi Calm Calm - 0.00 in   Overcast
7:01 AM 30.2 °F - 28.4 °F 93% 30.24 in 10.0 mi Calm Calm - N/A   Overcast
7:25 AM 30.2 °F 26.7 °F 28.4 °F 93% 30.25 in 10.0 mi WNW 3.5 mph - 0.00 in   Overcast
7:34 AM 30.2 °F 26.7 °F 30.2 °F 100% 30.25 in 1.8 mi WNW 3.5 mph - 0.00 in Snow Light Snow
7:48 AM 30.2 °F 26.7 °F 30.2 °F 100% 30.25 in 1.0 mi NW 3.5 mph - 0.00 in Snow Light Snow
7:53 AM 30.0 °F 25.2 °F 30.0 °F 100% 30.26 in 1.0 mi NW 4.6 mph - 0.00 in Snow Light Snow
8:15 AM 30.2 °F 26.7 °F 28.4 °F 93% 30.26 in 2.0 mi NW 3.5 mph - 0.00 in Snow Light Snow
8:24 AM 30.2 °F 26.7 °F 28.4 °F 93% 30.26 in 6.0 mi NNW 3.5 mph - 0.00 in   Overcast
8:53 AM 32.0 °F 26.4 °F 28.0 °F 85% 30.26 in 10.0 mi WSW 5.8 mph - 0.00 in   Overcast
9:53 AM 32.0 °F 26.4 °F 28.9 °F 88% 30.28 in 10.0 mi WNW 5.8 mph - N/A   Overcast
10:21 AM 33.8 °F 28.6 °F 28.4 °F 81% 30.27 in 10.0 mi West 5.8 mph - N/A   Overcast
10:51 AM 32.0 °F 24.8 °F 28.4 °F 87% 30.28 in 10.0 mi West 8.1 mph - N/A   Overcast
10:53 AM 32.0 °F 25.6 °F 28.0 °F 85% 30.28 in 10.0 mi West 6.9 mph - N/A   Overcast
11:08 AM 32.0 °F 24.2 °F 28.4 °F 87% 30.28 in 8.0 mi West 9.2 mph - 0.00 in   Overcast
11:20 AM 32.0 °F 24.8 °F 26.6 °F 80% 30.28 in 10.0 mi West 8.1 mph - 0.00 in   Overcast
11:53 AM 32.0 °F 24.8 °F 27.0 °F 82% 30.29 in 10.0 mi WSW 8.1 mph - 0.00 in   Overcast
12:14 PM 33.8 °F 25.8 °F 26.6 °F 75% 30.29 in 10.0 mi WSW 10.4 mph - N/A   Overcast
12:29 PM 33.8 °F 27.7 °F 28.4 °F 81% 30.29 in 10.0 mi West 6.9 mph - N/A   Overcast
12:53 PM 33.1 °F 25.5 °F 27.0 °F 78% 30.30 in 10.0 mi WSW 9.2 mph - N/A   Mostly Cloudy
1:53 PM 34.0 °F 26.0 °F 28.0 °F 79% 30.30 in 10.0 mi WSW 10.4 mph - 0.00 in   Overcast
2:53 PM 34.0 °F 26.6 °F 28.9 °F 82% 30.30 in 10.0 mi WSW 9.2 mph - 0.00 in Rain Light Rain
3:53 PM 34.0 °F 26.0 °F 28.0 °F 79% 30.30 in 10.0 mi WSW 10.4 mph - 0.00 in   Overcast
4:53 PM 34.0 °F 25.0 °F 28.9 °F 82% 30.30 in 10.0 mi WSW 12.7 mph - N/A   Overcast
5:53 PM 34.0 °F 26.0 °F 30.0 °F 85% 30.30 in 10.0 mi West 10.4 mph - N/A   Overcast
6:53 PM 35.1 °F 27.4 °F 30.0 °F 82% 30.30 in 10.0 mi WSW 10.4 mph - N/A   Overcast
7:53 PM 36.0 °F 28.0 °F 30.9 °F 82% 30.29 in 10.0 mi SW 11.5 mph - N/A   Overcast
8:30 PM 37.4 °F 30.8 °F 32.0 °F 81% 30.29 in 10.0 mi SW 9.2 mph - N/A   Scattered Clouds
8:53 PM 37.0 °F 31.0 °F 32.0 °F 82% 30.28 in 10.0 mi SSW 8.1 mph - N/A   Clear
9:53 PM 37.0 °F 29.8 °F 32.0 °F 82% 30.28 in 10.0 mi SSW 10.4 mph - N/A   Clear
10:19 PM 37.4 °F 29.8 °F 32.0 °F 81% 30.27 in 1.8 mi SSW 11.5 mph - N/A   Haze
10:34 PM 35.6 °F 28.0 °F 32.0 °F 87% 30.27 in 10.0 mi South 10.4 mph - N/A   Clear
10:53 PM 35.1 °F 26.9 °F 32.0 °F 89% 30.27 in 10.0 mi SSW 11.5 mph - N/A   Clear
11:53 PM 35.1 °F 26.9 °F 32.0 °F 89% 30.27 in 10.0 mi SSW 11.5 mph - N/A   Overcast